Date,TemperatureHighF,TemperatureAvgF,TemperatureLowF,DewpointHighF,DewpointAvgF,DewpointLowF,HumidityHigh,HumidityAvg,HumidityLow,PressureMaxIn,PressureMinIn,WindSpeedMaxMPH,WindSpeedAvgMPH,GustSpeedMaxMPH,PrecipitationSumIn
2013-3-1,42.9,38.5,33.7,31.7,28.3,22.9,78,67,55,29.88,29.71,17,7,25,0.00
2013-3-2,35.6,32.4,29.9,23.9,21.6,18.8,70,64,52,29.89,29.81,15,9,21,0.00
2013-3-3,39.7,32.3,28.6,22.4,20.0,17.4,77,61,46,29.91,29.80,14,6,24,0.00
2013-3-4,41.6,33.3,26.5,20.8,17.6,13.7,64,52,41,30.02,29.91,16,7,20,0.00
2013-3-5,46.2,37.5,25.3,28.6,22.0,18.5,78,54,36,30.07,29.82,6,3,10,0.00
2013-3-6,40.5,35.7,31.9,34.2,31.9,28.3,96,86,66,30.01,29.68,18,8,26,0.68
2013-3-7,48.9,41.2,34.6,30.1,28.2,24.9,79,61,45,30.15,30.01,14,6,23,0.00
2013-3-8,49.2,40.9,34.5,29.8,27.3,24.1,78,59,46,30.28,30.14,15,7,23,0.00
2013-3-9,59.2,42.3,28.0,29.9,24.7,16.7,82,54,19,30.35,30.24,5,1,7,0.00
2013-3-10,61.6,43.6,26.7,32.6,26.2,20.3,90,58,22,30.32,30.18,9,2,14,0.00
2013-3-11,57.7,48.0,34.7,48.5,40.3,26.6,91,75,56,30.22,29.89,10,3,20,0.00
2013-3-12,57.7,51.0,40.8,52.4,42.8,28.9,96,74,54,29.95,29.72,19,5,20,0.83
2013-3-13,47.3,38.9,29.2,31.6,25.0,18.9,87,59,35,30.06,29.89,14,6,21,0.00
2013-3-14,42.7,35.5,30.5,19.6,17.0,14.6,62,47,32,30.11,30.01,20,10,29,0.00
2013-3-15,55.5,42.5,27.1,34.7,25.2,16.8,78,52,35,30.08,29.76,11,4,17,0.00
2013-3-16,47.1,39.4,34.6,37.5,33.9,31.7,91,81,58,29.94,29.67,10,4,14,0.01
2013-3-17,39.6,35.9,33.4,32.0,28.3,23.3,91,75,56,30.26,29.93,7,2,9,0.00
2013-3-18,35.8,33.3,31.7,31.2,26.8,21.0,95,78,60,30.31,29.89,6,3,12,0.08
2013-3-19,56.7,41.7,32.4,41.7,27.6,9.8,98,65,20,29.90,29.71,17,6,24,0.24
2013-3-20,50.4,40.9,33.8,26.3,17.0,13.5,66,39,23,29.97,29.75,15,8,20,0.00
2013-3-21,36.3,32.1,27.5,25.8,15.7,7.9,66,51,34,29.88,29.76,12,6,20,0.00
2013-3-22,43.4,33.5,26.4,21.3,17.5,11.3,76,53,37,30.00,29.86,15,6,20,0.00
2013-3-23,51.7,37.9,23.6,25.3,22.0,18.9,83,55,30,30.03,29.91,12,4,18,0.00
2013-3-24,41.5,34.5,25.7,29.4,24.0,20.1,89,66,49,30.00,29.65,7,2,9,0.00
2013-3-25,36.1,33.8,31.6,33.5,31.5,29.1,100,91,77,29.69,29.52,6,1,6,0.46
2013-3-26,51.5,41.3,32.2,33.0,30.3,25.8,96,67,37,29.97,29.69,13,5,21,0.00
2013-3-27,48.6,41.6,36.2,34.3,28.5,24.9,75,60,43,30.11,29.97,16,7,24,0.00
2013-3-28,48.7,42.1,38.0,32.5,29.4,25.9,72,61,43,30.22,30.07,14,6,21,0.00
2013-3-29,55.7,44.9,34.9,33.2,29.5,25.0,80,56,33,30.24,30.13,12,3,19,0.00
2013-3-30,58.6,42.9,28.8,35.0,26.8,20.1,90,60,24,30.22,30.09,9,2,14,0.00
2013-3-31,47.7,41.2,34.1,46.1,37.1,26.7,96,86,63,30.11,29.74,5,1,7,0.17